Miscellaneous Local Product
Issued by NWS Hastings, NE

Home | Current Version | Previous Version | Graphics & Text | Print | Product List | Glossary On
Versions: 1 2 3 4 5 6 7 8 9 10 11 12 13 14 15 16 17 18 19 20 21 22 23 24 25 26 27 28 29 30 31 32 33 34 35 36 37 38 39 40 41 42 43 44 45 46 47 48 49 50
000
AXUS43 KGID 282002
MISGRI

GID CWA HOURLY WEATHER ROUNDUP
NATIONAL WEATHER SERVICE HASTINGS NE
300 PM CDT FRI APR 28 2017

NOTE: "FAIR" INDICATES FEW OR NO CLOUDS BELOW 12,000 FEET WITH NO
SIGNIFICANT WEATHER AND/OR OBSTRUCTIONS TO VISIBILITY.

...SOUTH CENTRAL NEBRASKA...

CITY           SKY/WX    TMP DP  RH WIND       PRES   REMARKS
GRAND ISLAND   LGT SNOW  37  37 100 NE20G28   29.85R FOG     WCI  27
HASTINGS       LGT RAIN  38  36  92 NE23      29.84R FOG     WCI  27
KEARNEY        CLOUDY    37  34  87 N22       29.84R WCI  27
ORD            LGT RAIN  38  34  85 NE18      29.89R WCI  28
YORK           MOSUNNY   39  39 100 NE17      29.83R FOG     WCI  30
AURORA         CLOUDY    38  38  97 NE20      29.83R FOG     WCI  28
LEXINGTON      CLOUDY    37  34  89 NE21      29.85R WCI  26
HOLDREGE       CLOUDY    37  35  93 NE20      29.83R WCI  26
HEBRON         CLOUDY    41  40  97 NE15      29.78R FOG

...NEBRASKA PANHANDLE...

CITY           SKY/WX    TMP DP  RH WIND       PRES   REMARKS
CHADRON        CLOUDY    41  33  73 E9        29.94R
ALLIANCE       LGT SNOW  34  31  88 E20       29.89R VSB 3/4 WCI  23
SCOTTSBLUFF    LGT SNOW  34  31  88 E15       29.89R FOG     WCI  24
SIDNEY         LGT SNOW  34  31  88 E20G26    29.84R FOG     WCI  23

...WESTERN AND NORTH CENTRAL NEBRASKA...

CITY           SKY/WX    TMP DP  RH WIND       PRES   REMARKS
VALENTINE      CLOUDY    46  26  45 NE17G24   29.95R
AINSWORTH      CLOUDY    43  32  64 NE13G22   29.94R
ONEILL         CLOUDY    44  28  54 NE12      29.93R
BROKEN BOW     CLOUDY    37  35  92 NE20G28   29.88R WCI  27
IMPERIAL       CLOUDY    39  34  82 E22       29.82R WCI  29
NORTH PLATTE   CLOUDY    38  34  85 NE23G32   29.87R WCI  27
MCCOOK         CLOUDY    39  36  89 NE22      29.82R WCI  29

...EASTERN NEBRASKA...

CITY           SKY/WX    TMP DP  RH WIND       PRES   REMARKS
NORFOLK        LGT RAIN  39  34  82 N17G25    29.88R WCI  30
SO SIOUX CITY  LGT RAIN  44  34  67 NE16G22   29.90S
TEKAMAH        LGT RAIN  40  37  89 NE24      29.87R FOG     WCI  29
COLUMBUS       CLOUDY    37  34  87 NE17G28   29.87R WCI  28
ALBION         DRIZZLE   38  34  86 N13G22    29.89R WCI  30
OMAHA EPPLEY   DRIZZLE   41  36  82 NE12      29.85R
OFFUTT AFB     LGT RAIN  39  37  93 NE12G20   29.82R FOG     WCI  32
MILLARD        LGT RAIN  42  40  91 NE7       29.83S
LINCOLN        CLOUDY    42  40  92 NE13G21   29.83R FOG
NEBRASKA CITY  CLOUDY    39  39 100 NE17      29.79R WCI  30
BEATRICE       CLOUDY    42  40  93 NE17G26   29.76F FOG
FALLS CITY     CLOUDY    44  42  93 NE13      29.75R

...NORTHERN KANSAS...

CITY           SKY/WX    TMP DP  RH WIND       PRES   REMARKS
GOODLAND       CLOUDY    48  40  73 NE18G26   29.74R
HILL CITY      CLOUDY    47  42  83 N21       29.77R
NORTON         CLOUDY    39  34  81 N21G28    29.77F WCI  29
PHILLIPSBURG   CLOUDY    45  39  81 N20G26    29.77R
SMITH CENTER   CLOUDY    43  39  87 NE16G25   29.77R
HAYS           MOSUNNY   63  44  50 N14       29.70R
RUSSELL        MOSUNNY   65  45  48 N10       29.68R
CONCORDIA      CLOUDY    47  46  97 NE12      29.74R
SALINA         CLOUDY    71  50  47 N9        29.67R
TOPEKA         PTSUNNY   67  59  75 CALM      29.67S



USA.gov is the U.S. government's official web portal to all federal, state and local government web resources and services.